Dewpoint
56 55 54 54 55 55 55 54 53 55 57 56 56 57 55 55 58 57 57 57 57 58 57 56 58 58 59 59 58 58 59 58 58 57 54 52 51 51 52 50 47 45
56 56 57 55 54 55 54 55 57 57 56 56 55 55 55 54 54 54 55 56 57 57 55 54 55 55 55 53 53 53 53 52 52 53 50 51 52 50 48 47 46 47
57 56 54 53 54 55 56 58 57 55 55 55 55 54 54 53 53 54 56 55 51 50 51 52 53 53 52 51 51 50 50 50 50 51 50 48 49 50 50 50 50 49
57 56 55 55 55 55 55 54 54 53 54 54 54 55 56 55 54 53 55 56 53 53 53 54 51 51 52 52 50 49 47 48 49 50 51 52 52 49 49 49 50 49
56 56 55 55 56 55 53 53 54 54 53 53 53 54 52 50 51 51 51 51 52 50 49 50 52 50 49 48 48 48 50 50 50 50 50 50 51 52 51 49 48 49
56 55 55 55 55 54 53 53 53 52 51 50 51 52 50 50 50 51 51 50 50 50 48 50 48 47 46 47 48 49 49 49 50 50 50 50 50 49 48 49 49 49
54 55 55 55 55 55 54 54 53 52 51 51 50 49 51 51 49 48 49 50 48 49 49 50 48 48 48 48 49 48 48 48 48 48 49 49 49 49 50 49 49 49
55 54 54 54 53 54 55 55 55 53 52 51 50 51 52 52 48 49 47 47 48 48 49 49 49 49 50 50 48 46 47 50 49 48 49 49 49 48 49 51 49 46
55 53 53 53 53 53 53 54 54 54 53 53 51 50 52 50 49 48 46 47 47 47 47 48 49 51 50 49 49 49 50 50 49 48 49 47 46 47 47 47 47 47
54 53 53 54 54 52 51 52 52 52 53 53 52 49 49 51 50 48 49 47 45 46 47 48 50 49 49 49 50 49 47 47 48 48 48 47 47 45 46 46 46 47
54 54 54 56 55 52 51 51 51 51 52 51 52 51 51 51 51 48 50 46 47 47 48 50 50 48 47 47 50 50 48 48 46 47 48 47 46 45 49 46 47 45
56 55 55 56 56 53 51 51 51 50 52 52 52 52 51 51 46 48 49 49 48 47 48 49 50 50 49 50 51 51 49 48 48 49 50 50 47 47 47 47 48 46
58 57 56 57 57 56 54 53 52 52 53 53 53 52 52 48 47 47 48 49 49 49 48 48 49 50 51 52 52 52 51 52 51 51 52 51 50 49 48 48 50 50
59 59 58 57 57 57 57 55 54 54 54 54 54 52 50 50 49 49 48 48 47 49 49 48 47 48 50 51 50 52 51 52 51 51 51 51 50 52 51 50 53 54
58 58 57 57 57 57 56 56 57 55 54 54 54 54 51 48 49 50 49 48 48 48 49 49 48 48 50 49 49 50 51 52 53 51 51 53 53 54 54 55 54 53
58 57 58 57 57 56 55 55 55 56 56 55 54 53 53 50 49 49 50 46 47 48 47 50 49 49 50 47 48 49 51 51 54 52 53 54 54 54 53 55 55 53
57 56 56 56 56 55 55 55 56 56 55 55 55 55 54 54 54 52 52 51 47 48 48 49 49 50 45 42 43 45 51 53 53 53 54 55 54 54 53 54 54 54
56 55 55 55 56 55 55 55 55 55 55 54 54 55 54 54 54 54 53 52 52 51 51 52 51 48 43 41 42 43 49 54 54 54 55 54 53 54 53 53 54 54
55 55 55 54 55 55 54 55 54 54 54 55 55 56 54 54 53 54 54 54 53 52 51 53 53 44 44 43 42 44 48 52 55 55 55 54 54 54 53 52 53 53
42 48 53 53 54 53 54 54 54 53 53 54 55 55 53 53 53 53 54 54 54 53 53 53 53 46 43 44 46 44 45 50 55 55 54 54 53 53 52 52 53 53
38 41 42 43 44 48 49 49 51 51 54 54 54 55 53 53 53 53 52 52 53 53 51 53 53 44 43 45 46 46 45 46 52 54 53 53 53 53 52 50 52 52
36 37 39 40 42 43 44 45 44 46 46 52 53 54 53 53 52 52 52 53 53 52 51 50 52 43 43 43 45 45 44 49 51 50 51 53 54 54 54 53 54 51
35 36 37 38 41 41 43 44 43 44 44 45 44 48 52 53 54 54 54 54 53 52 52 51 51 44 41 42 43 43 44 50 51 51 51 51 52 53 54 54 53 51
35 36 37 39 39 41 43 43 43 43 42 43 43 44 45 47 52 53 54 54 54 53 53 52 51 48 42 42 42 42 45 51 51 51 51 51 50 52 53 53 53 52
37 38 38 38 37 38 40 40 41 41 41 42 42 42 43 44 46 51 53 53 53 53 53 52 51 49 43 42 42 42 44 49 50 48 48 49 50 51 52 52 51 50
37 38 38 38 37 37 38 38 38 37 37 38 39 41 42 43 44 45 49 53 53 53 52 52 52 51 47 42 42 42 42 48 51 51 50 50 50 50 50 46 44 41